EW4557 Weather Reports


Display with metric or nautical units.
time (UTC)temp
F
wind
direction
speed
MPH
gust
MPH
rain 1hr
in
rain 24hr
in
rain mn
in
humidity
%
barometer
mb
20260508141556 64 0 4.0 9.0 0.00 0.00 0.00 43 1017.3
20260508140636 63 0 3.0 6.0 0.00 0.00 0.00 44 1017.3
20260508135516 62 0 5.0 12.0 0.00 0.00 0.00 45 1017.6
20260508134516 60 0 4.0 8.0 0.00 0.00 0.00 47 1017.5
20260508133516 58 0 4.0 9.0 0.00 0.00 0.00 51 1017.5
20260508132516 57 0 4.0 8.0 0.00 0.00 0.00 54 1017.4
20260508131636 55 0 4.0 8.0 0.00 0.00 0.00 57 1017.4
20260508125556 48 0 4.0 6.0 0.00 0.00 0.00 71 1016.2
20260508124515 44 0.0 0.0 0.00 0.00 0.00 75 1015.5
20260508123636 43 0.0 0.0 0.00 0.00 0.00 75 1015.1
20260508122555 43 0.0 0.0 0.00 0.00 0.00 71 1015.2
20260508121556 44 0.0 0.0 0.00 0.00 0.00 70 1015.2
20260508120516 46 0.0 2.0 0.00 0.00 0.00 67 1015.3
20260508115516 48 0 0.0 2.0 0.00 0.00 0.00 65 1015.6
20260508114515 49 0 0.0 3.0 0.00 0.00 0.00 62 1015.7
20260508113515 49 0 0.0 3.0 0.00 0.00 0.00 63 1015.6
20260508111555 50 0 3.0 5.0 0.00 0.00 0.00 59 1015.8
20260508110515 51 0 2.0 3.0 0.00 0.00 0.00 59 1015.7
20260508105635 50 0 1.0 4.0 0.00 0.00 0.00 60 1015.8
20260508104555 51 0 1.0 3.0 0.00 0.00 0.00 61 1015.8
20260508103556 52 0 2.0 8.0 0.00 0.00 0.00 60 1016.2
20260508100515 53 0 2.0 4.0 0.00 0.00 0.00 58 1016.2
20260508095515 54 0 1.0 4.0 0.00 0.00 0.00 58 1016.1
20260508094515 53 0 2.0 4.0 0.00 0.00 0.00 61 1016.0
20260508092555 49 0 2.0 5.0 0.00 0.00 0.00 69 1015.2
20260508091515 48 0 2.0 4.0 0.00 0.00 0.00 73 1015.2
20260508090515 44 0 1.0 6.0 0.00 0.00 0.00 77 1014.5
20260508085555 43 0 2.0 3.0 0.00 0.00 0.00 78 1014.0
20260508084515 43 0 1.0 3.0 0.00 0.00 0.00 77 1013.9
20260508083635 43 0 1.0 3.0 0.00 0.00 0.00 78 1014.1
20260508082515 43 0 1.0 3.0 0.00 0.00 0.00 79 1014.1
20260508081515 42 0 2.0 4.0 0.00 0.00 0.00 79 1014.0
20260508080555 42 0 1.0 4.0 0.00 0.00 0.00 79 1014.1
20260508075515 42 0 1.0 3.0 0.00 0.00 0.00 78 1014.3
20260508074555 42 0.0 0.0 0.00 0.00 0.00 77 1014.3
20260508073515 43 0.0 0.0 0.00 0.00 0.00 76 1014.3
20260508072515 43 0.0 0.0 0.00 0.00 0.00 74 1014.4
20260508071555 43 0.0 0.0 0.00 0.00 0.00 72 1014.5
20260508063555 44 0.0 0.0 0.00 0.01 0.00 71 1014.4
20260508062515 45 0.0 0.0 0.00 0.01 0.00 70 1014.5
20260508061517 45 0 0.0 1.0 0.00 0.01 0.00 69 1014.5
20260508060517 45 0 0.0 2.0 0.00 0.01 0.00 70 1014.7
20260508055516 45 0 1.0 3.0 0.00 0.01 0.01 70 1014.4
20260508054556 46 0 1.0 3.0 0.00 0.01 0.01 69 1014.5
20260508052516 46 0.0 0.0 0.00 0.01 0.01 65 1014.7
20260508051516 47 0.0 0.0 0.00 0.01 0.01 64 1014.6
20260508050556 47 0.0 0.0 0.00 0.01 0.01 64 1014.5
20260508045516 48 0.0 0.0 0.00 0.01 0.01 63 1014.5
20260508044636 48 0 1.0 3.0 0.00 0.01 0.01 63 1014.5
20260508043556 48 0.0 0.0 0.00 0.01 0.01 61 1014.6
20260508042516 49 0.0 0.0 0.00 0.01 0.01 60 1014.8
20260508041516 49 0.0 0.0 0.00 0.01 0.01 58 1014.6
20260508040636 50 0.0 0.0 0.00 0.01 0.01 56 1014.7
20260508035556 50 0.0 0.0 0.00 0.03 0.01 55 1014.5
20260508034516 51 0 0.0 1.0 0.00 0.04 0.01 54 1014.5
20260508033516 52 0.0 1.0 0.00 0.04 0.01 53 1014.5
20260508032516 52 0 1.0 3.0 0.00 0.04 0.01 53 1014.0
20260508030556 55 0 0.0 2.0 0.00 0.05 0.01 45 1013.5
20260508025515 57 0.0 0.0 0.00 0.05 0.01 44 1013.7
20260508024516 58 0.0 0.0 0.00 0.05 0.01 41 1013.9
20260508021517 64 0.0 0.0 0.00 0.08 0.01 35 1014.3
20260508020515 66 0.0 2.0 0.00 0.08 0.01 30 1014.5
20260508015515 68 0.0 1.0 0.00 0.08 0.01 28 1014.7
20260508014515 69 0 0.0 1.0 0.00 0.08 0.01 27 1014.7
20260508013515 71 0 0.0 2.0 0.00 0.08 0.01 26 1014.9
20260508012515 72 0 0.0 3.0 0.00 0.09 0.01 25 1015.1
20260508011515 73 0 1.0 3.0 0.00 0.10 0.01 24 1015.3
20260508010555 73 0 1.0 4.0 0.00 0.12 0.01 24 1015.4
20260508005555 73 0 0.0 4.0 0.00 0.12 0.01 24 1015.2
20260508004515 74 0 3.0 5.0 0.00 0.12 0.01 23 1015.4
20260508003635 74 0 1.0 5.0 0.00 0.12 0.01 23 1015.3
20260508002555 75 0 3.0 5.0 0.00 0.12 0.01 23 1015.4
20260508000555 75 0 1.0 5.0 0.00 0.12 0.01 23 1015.4
20260507235515 75 0 2.0 4.0 0.00 0.12 0.01 22 1015.4
20260507234515 75 0 2.0 6.0 0.00 0.12 0.01 22 1015.5
20260507232515 75 0 3.0 10.0 0.00 0.12 0.01 20 1015.7
20260507231515 75 0 3.0 8.0 0.00 0.12 0.01 21 1015.8
20260507230635 74 0 3.0 6.0 0.00 0.12 0.01 22 1015.5
20260507225555 74 0 3.0 8.0 0.00 0.12 0.01 22 1015.6
20260507224515 74 0 5.0 11.0 0.00 0.12 0.01 21 1015.7
20260507223555 74 0 4.0 12.0 0.00 0.12 0.01 23 1015.5
20260507221555 73 0 5.0 11.0 0.00 0.12 0.01 24 1015.8
20260507220515 73 0 3.0 9.0 0.00 0.12 0.01 25 1016.0
20260507214555 72 0 3.0 10.0 0.00 0.12 0.01 25 1016.4
20260507213555 72 0 5.0 11.0 0.00 0.12 0.01 26 1016.7
20260507212635 71 0 4.0 10.0 0.00 0.12 0.01 26 1016.8
20260507210517 72 0 3.0 9.0 0.00 0.12 0.01 25 1017.6
20260507204517 70 0 5.0 13.0 0.00 0.12 0.01 27 1017.9
20260507203557 69 0 3.0 9.0 0.00 0.12 0.01 29 1018.1
20260507202557 69 0 3.0 8.0 0.00 0.12 0.01 28 1018.2
20260507201516 69 0 4.0 14.0 0.00 0.12 0.01 28 1018.4
20260507200516 68 0 4.0 10.0 0.00 0.12 0.01 33 1018.3
20260507195557 68 0 2.0 6.0 0.00 0.12 0.01 32 1018.8
20260507193637 66 0 3.0 9.0 0.00 0.12 0.01 36 1019.0
20260507192516 65 0 3.0 10.0 0.00 0.12 0.01 33 1018.8
20260507190516 64 0 5.0 12.0 0.00 0.12 0.01 41 1019.3
20260507185516 64 0 3.0 9.0 0.00 0.12 0.01 42 1019.5
20260507183516 63 0 4.0 9.0 0.00 0.12 0.01 47 1019.9
20260507182556 62 0 3.0 10.0 0.00 0.12 0.01 47 1020.2
20260507180558 61 0 6.0 15.0 0.00 0.12 0.01 52 1020.4
20260507175556 60 0 4.0 11.0 0.00 0.12 0.01 53 1020.5
20260507174516 60 0 6.0 12.0 0.00 0.12 0.01 55 1020.8
20260507173516 59 0 6.0 12.0 0.00 0.12 0.01 56 1020.9
20260507172556 58 0 7.0 13.0 0.00 0.12 0.01 58 1020.9
20260507170516 57 0 8.0 13.0 0.00 0.12 0.01 61 1021.2
20260507164556 55 0 8.0 15.0 0.00 0.12 0.01 65 1021.1
20260507163516 55 0 10.0 15.0 0.00 0.12 0.01 66 1021.2
20260507162516 54 0 5.0 13.0 0.00 0.12 0.01 71 1021.2
20260507161516 53 0 7.0 16.0 0.00 0.12 0.01 72 1021.2
20260507160556 52 0 6.0 13.0 0.00 0.12 0.01 75 1021.3
20260507155516 51 0 5.0 11.0 0.00 0.12 0.01 78 1021.1
20260507154516 50 0 3.0 8.0 0.00 0.12 0.01 83 1021.3
20260507151636 46 0 4.0 9.0 0.00 0.12 0.01 88 1021.3
20260507150556 45 0 3.0 8.0 0.00 0.12 0.01 91 1021.2
20260507145516 44 0 3.0 8.0 0.00 0.12 0.01 91 1021.3
20260507144516 44 0 3.0 6.0 0.00 0.12 0.01 91 1021.3
20260507143636 43 0 3.0 6.0 0.00 0.12 0.01 91 1021.1
20260507142516 43 0 4.0 9.0 0.00 0.12 0.01 91 1021.4